Regional Weather Roundup
Issued by NWS

Home | Current Version | Previous Version | Text Only | Print | Product List | Glossary On
Versions: 1 2 3 4 5 6 7 8 9 10 11 12 13 14 15 16 17 18 19 20 21 22 23 24 25 26 27 28 29 30 31 32 33 34 35 36 37 38 39 40 41 42 43 44 45 46 47 48 49 50
000
ASCA44 KEWX 210320
RWRMX

LATIN AMERICA AND CARIBBEAN REGIONAL WEATHER ROUNDUP
NATIONAL WEATHER SERVICE AUSTIN/SAN ANTONIO TX
900 PM CST TUE FEB 20 2018

NOTE: "FAIR" INDICATED FEW OR NO CLOUDS BELOW 12,000 FEET WITH NO
SIGNIFICANT WEATHER AND/OR OBSTRUCTIONS TO VISIBILITY.

BAJA CALIFORNIA

CITY           SKY/WX    TMP DP  RH WIND       PRES   REMARKS
LA PAZ         CLEAR     66  52  59 CALM      30.05R
MEXICALI       CLEAR     50  10  20 S3        30.11S
S.J. DEL CABO  PTCLDY    66  55  68 SE6       30.03R
TIJUANA        CLEAR     50  30  46 CALM      30.17R

NORTHWESTERN MEXICO

CITY           SKY/WX    TMP DP  RH WIND       PRES   REMARKS
CULIACAN         N/A    N/A N/A N/A MISG        N/A
DURANGO        CLEAR     55  41  58 SW8       30.21R
GUAYMAS          N/A    N/A N/A N/A MISG        N/A
HERMOSILLO     PTCLDY    59  34  38 W8        30.04R
CD. JUAREZ     CLEAR     55  36  47 NW12      30.00R
LOS MOCHIS     CLEAR     63  52  67 NW8       30.04R

NORTHEASTERN MEXICO

CITY           SKY/WX    TMP DP  RH WIND       PRES   REMARKS
CHIHUAHUA      CLEAR     61  23  23 SW15      30.02R
MONCLOVA         N/A    N/A N/A N/A MISG        N/A
SALTILLO       PTCLDY    59  46  63 CALM      30.14R
CD. VICTORIA   PTCLDY    77  64  65 SE12      29.90R

WESTERN MEXICO

CITY           SKY/WX    TMP DP  RH WIND       PRES   REMARKS
AGUASCALIENTES CLEAR     61  30  31 W6        30.22R
COLIMA         PTCLDY    70  66  88 CALM      30.10R
DEL BAJIO      PTCLDY    63  34  34 NW5       30.25R
GUADALAJARA    MOCLDY    68  37  32 W7        30.16R
MAZATLAN       MOCLDY    72  59  64 N5        29.97R
P. VALLARTA    CLEAR     77  72  83 S8        29.98R
URUAPAN          N/A    N/A N/A N/A MISG        N/A
ZACATECAS      PTCLDY    54  34  47 W10       30.24

CENTRAL MEXICO

CITY           SKY/WX    TMP DP  RH WIND       PRES   REMARKS
CUERNAVACA       N/A    N/A N/A N/A MISG        N/A
MEXICO CITY    CLEAR     64  39  39 S12       30.28R
MORELIA        CLEAR     59  39  47 SW6       30.21R
POZA RICA        N/A    N/A N/A N/A MISG        N/A
QUERETARO      CLEAR     64  43  45 W8        30.24R
S. LUIS POTOSI CLEAR     66  23  19 W5        30.16F
TAMPICO        CLOUDY    73  72  94 MISG      29.91

SOUTHERN MEXICO

CITY           SKY/WX    TMP DP  RH WIND       PRES   REMARKS
ACAPULCO       CLEAR     79  72  78 W3        29.93R
B. DE HUATULCO   N/A    N/A N/A N/A MISG        N/A
P. ESCONDIDO     N/A    N/A N/A N/A MISG        N/A
VERACRUZ       CLEAR     75  70  83 N3        29.93R
ZIHUATANEJO    CLEAR     81  70  69 NE2       29.94R

YUCATAN PENINSULA

CITY           SKY/WX    TMP DP  RH WIND       PRES   REMARKS
CAMPECHE       CLEAR     79  72  78 E17G29    29.98R
CANCUN         PTCLDY    79  72  78 E13       30.14R
CHETUMAL       PTCLDY    79  73  83 E12       30.06R
CD. DEL CARMEN   N/A    N/A N/A N/A MISG        N/A
COZUMEL        PTCLDY    79  72  78 SE14      30.11R
MERIDA         CLEAR     79  66  65 SE16      30.06R
MINATITLAN     CLEAR     79  75  89 CALM      29.89R
TAPACHULA      PTCLDY    75  68  78 CALM      29.94R
TUX. GUTIERREZ CLEAR     75  57  53 MISG      29.98R
VILLAHERMOSA   PTCLDY    79  70  73 E8        29.95R

CENTRAL AMERICA

CITY           SKY/WX    TMP DP  RH WIND       PRES   REMARKS
MANAGUA        PTCLDY    79  68  69 E14       29.94R

CARIBBEAN

CITY           SKY/WX    TMP DP  RH WIND       PRES   REMARKS
ARUBA          PTCLDY    75  72  88 E12       30.03S
CURACAO        PTCLDY    77  70  78 E16       30.06S
KINGSTON       PTCLDY    79  70  73 W9        30.09S
NASSAU         PTCLDY    81  64  57 E12       30.35R
SAN JUAN       PTCLDY    75  70  83 E18G24    30.19S
SANTO DOMINGO  PTCLDY    72  68  88 N7        30.18S
ST. CROIX      PTCLDY    75  68  78 NE13G24   30.17S
ST. MAARTEN    PTCLDY    77  66  69 E13       30.15S
ST. THOMAS     PTCLDY    75  72  88 NE13G28   30.17S

$$





USA.gov is the U.S. government's official web portal to all federal, state and local government web resources and services.